Regional Weather Roundup
Issued by NWS

Home | Current Version | Previous Version | Text Only | Print | Product List | Glossary On
Versions: 1 2 3 4 5 6 7 8 9 10 11 12 13 14 15 16 17 18 19 20 21 22 23 24 25 26 27 28 29 30 31 32 33 34 35 36 37 38 39 40 41 42 43 44 45 46 47 48 49 50
000
ASUS44 KMEG 071310
RWRTN
TENNESSEE HOURLY STATE WEATHER ROUNDUP
NATIONAL WEATHER SERVICE MEMPHIS TN
800 AM CDT TUE JUL 07 2015

TNZ002-004-019-021-049-052-054-088>092-071400-
WEST TENNESSEE

CITY           SKY/WX    TMP DP  RH WIND       PRES   REMARKS
MEMPHIS INTL   MOSUNNY   80  74  81 S8        30.06R
NWS MEMPHIS      N/A     80 N/A N/A MISG        N/A
JACKSON        MOSUNNY   77  73  87 SW10      30.06R
DYERSBURG        N/A    N/A N/A N/A MISG        N/A
PARIS          SUNNY     73  72  94 SW10      30.04R
LEXINGTON      SUNNY     75  73  94 S9        30.06S
$$

TNZ008-025-027-028-033-062-065-066-071400-
NORTH MIDDLE TENNESSEE

CITY           SKY/WX    TMP DP  RH WIND       PRES   REMARKS
NASHVILLE      PTSUNNY   77  73  87 SW8       30.08S
CLARKSVILLE    CLOUDY    75  71  87 SW10      30.04S
SMYRNA         MOSUNNY   79  74  84 SW7       30.10R
COOKEVILLE     PTSUNNY   79  75  89 SW8       30.12S
CROSSVILLE     CLOUDY    74  69  85 SW6       30.18R
$$

TNZ061-075-076-078-094-096-097-071400-
SOUTH MIDDLE TENNESSEE

CITY           SKY/WX    TMP DP  RH WIND       PRES   REMARKS
FAYETTEVILLE   MOSUNNY   73  72  94 SW7       30.14R
TULLAHOMA      SUNNY     75  72  88 SW10      30.15R
WINCHESTER     CLOUDY    77  72  83 S3        30.15R
MCMINNVILLE    MOSUNNY   79  77  94 SW8       30.13S
COLUMBIA       SUNNY     81  75  83 SW10      30.09S
SHELBYVILLE    SUNNY     79  75  89 S8          N/A
$$

TNZ017-018-042-046-047-071400-
NORTHEAST TENNESSEE

CITY           SKY/WX    TMP DP  RH WIND       PRES   REMARKS
TRI CITIES     MOSUNNY   69  66  90 CALM      30.18F FOG
ELIZABETHTON   PTSUNNY   66  63  88 CALM      30.19F
$$

TNZ012-013-036-069-073-074-071400-
CENTRAL EAST TENNESSEE

CITY           SKY/WX    TMP DP  RH WIND       PRES   REMARKS
KNOXVILLE      MOSUNNY   75  69  81 S8        30.14F
OAK RIDGE      CLOUDY    75  70  84 CALM      30.15S
GATLINBURG     CLOUDY    72  64  78 CALM      30.15F
MORRISTOWN       N/A     72  70  94 S5        30.17S
$$

TNZ083-085-099-071400-
SOUTHEAST TENNESSEE

CITY           SKY/WX    TMP DP  RH WIND       PRES   REMARKS
CHATTANOOGA    MOSUNNY   77  71  82 S6        30.15R
$$

SKY/WX REPORTED AS FAIR MEANS FEW OR NO CLOUDS BELOW
12 THOUSAND FEET.



USA.gov is the U.S. government's official web portal to all federal, state and local government web resources and services.